Location: Caramacate
(10.0289°N, 66.7587°W)
Time: 20:32:58
(UTC+00:00)

Cosmos 2082 Rocket - Pass Details

Date: 05 August 2024
Orbit: 834 x 852 km, 71.0° (Epoch: 07 September)

Event Time Altitude Azimuth Distance (km) Brightness Sun altitude
Rises 23:11:10 0° 10° (N) 3,372 5.4 -6.1°
Reaches altitude 10° 23:14:24 10° 29° (NNE) 2,441 4.5 -6.9°
Maximum altitude 23:18:06 18° 71° (ENE) 1,945 3.6 -7.7°
Enters shadow 23:21:44 10° 112° (ESE) 2,435 3.9 -8.6°
